Content
SEND FEEDBACK

Daily
Averages
Monthly
Summary
United States of America

PUNTA GORDA, FLORIDA


Home > North America > United States > Florida
Elevation: 18 feet     Latitude: 26 55N     Longitude: 082 00W

WEATHER
 
SELECT A DAY
Number of Records: 185,158;   Date Range: 9/20/96 - 11/24/14
 
SHARE

PRINT THIS DATA

[ ← Previous Day ]
WEATHER ALMANAC - FEBRUARY 13, 2013
[ Next Day → ]
[ °C ]   °F
Weather ElementAverageHighLow
Temperature72.2 °F84 °F (12:53 pm)63 °F (3:53 am)
Dewpoint67 °F71.6 °F (9:06 am)55.4 °F (10:29 pm)
Humidity84.7 %100 % (2:58 am)58 % (12:53 pm)
Barometer29.98 in30.02 in (9:53 am)29.93 in (2:53 pm)
Wind Speed9.7 mph19.6 mph (3:53 pm)
Wind Gust28.8 mph (1:53 pm)
Weather ElementAverage
Visibility7 mi
Wind DirectionSSE (171.8 °)

Weather ElementTotal
Precipitation0.06 in
Cooling Degree Days8.5 (Base 65)
Growing Degree Days23.5 (Base 50)
Averaged from 39 records on February 13, 2013
WEATHER CONDITIONS BREAKOUT
WIND DIRECTION BREAKOUT
WEATHER BY HOUR - FEBRUARY 13, 2013
[ °C ]   °F
Local TimeTemperatureDewpointHumidityBarometerVisibilityWind DirectionWind SpeedGust SpeedPrecipitationEventsConditions
1:53 AM69.1 °F66.9 °F93 %29.99 in8.0 miSouth (190°)6.9 mphClear
2:53 AM66.0 °F64.9 °F96 %29.99 in4.0 miSouth (190°)3.5 mphClear
2:58 AM66.2 °F66.2 °F100 %29.99 in1.5 miSouth (190°)3.5 mphPartly Cloudy
3:03 AM66.2 °F64.4 °F94 %29.99 in0.8 miSouth (190°)3.5 mphMist
3:37 AM64.4 °F64.4 °F100 %29.98 in0.2 miCalmFogFog
3:44 AM64.4 °F62.6 °F94 %29.98 in0.2 miCalmFogFog
3:53 AM63.0 °F63.0 °F100 %29.99 in0.2 miCalmFogFog
4:45 AM66.2 °F64.4 °F94 %29.97 in0.5 miSSE (150°)4.6 mph0.01 inFogFog
4:53 AM66.0 °F64.9 °F96 %29.98 in0.5 miSSE (160°)5.8 mph0.01 inFogFog
5:01 AM66.2 °F66.2 °F100 %29.97 in0.5 miSSE (160°)6.9 mphFogFog
5:11 AM66.2 °F66.2 °F100 %29.97 in2.0 miSSE (160°)5.8 mphOvercast
5:20 AM68.0 °F66.2 °F94 %29.97 in4.0 miSSE (160°)5.8 mphOvercast
5:53 AM70.0 °F69.1 °F97 %29.98 in7.0 miSouth (180°)8.1 mphOvercast
6:51 AM71.6 °F69.8 °F94 %29.98 in7.0 miSouth (180°)8.1 mphOvercast
6:53 AM71.1 °F70.0 °F96 %29.99 in7.0 miSouth (180°)8.1 mphOvercast
7:13 AM71.6 °F69.8 °F94 %29.98 in8.0 miSouth (180°)11.5 mphScattered Clouds
7:53 AM73.0 °F70.0 °F90 %29.99 in9.0 miSouth (190°)9.2 mphMostly Cloudy
8:53 AM75.0 °F71.1 °F87 %30.01 in10.0 miSouth (190°)10.4 mphMostly Cloudy
9:06 AM77.0 °F71.6 °F83 %30.01 in10.0 miSouth (190°)13.8 mph19.6 mphScattered Clouds
9:16 AM77.0 °F71.6 °F83 %30.01 in10.0 miSSW (200°)13.8 mph20.7 mphMostly Cloudy
9:28 AM75.2 °F71.6 °F89 %30.01 in10.0 miSSW (210°)12.7 mphScattered Clouds
9:53 AM79.0 °F70.0 °F74 %30.02 in10.0 miSSW (210°)15.0 mphClear
10:53 AM82.0 °F68.0 °F62 %30.01 in10.0 miSSW (200°)15.0 mphClear
11:53 AM82.9 °F68.0 °F60 %30.00 in10.0 miSW (230°)17.3 mphClear
12:53 PM84.0 °F68.0 °F58 %29.98 in10.0 miSW (220°)18.4 mphClear
1:53 PM82.9 °F68.0 °F60 %29.95 in10.0 miSW (230°)18.4 mph28.8 mphClear
2:53 PM82.9 °F69.1 °F63 %29.93 in10.0 miSW (220°)18.4 mph26.5 mphPartly Cloudy
3:53 PM81.0 °F68.0 °F65 %29.93 in10.0 miSW (220°)19.6 mphClear
4:53 PM80.1 °F69.1 °F69 %29.93 in10.0 miSW (220°)13.8 mph24.2 mphClear
5:53 PM77.0 °F69.1 °F76 %29.94 in10.0 miSW (220°)15.0 mph20.7 mphClear
6:53 PM75.0 °F70.0 °F84 %29.93 in10.0 miSSW (210°)13.8 mphClear
7:53 PM75.0 °F71.1 °F87 %29.96 in10.0 miSW (230°)8.1 mphMostly Cloudy
8:53 PM73.9 °F71.1 °F91 %29.97 in8.0 miSW (220°)9.2 mphPartly Cloudy
9:31 PM73.4 °F71.6 °F94 %29.97 in8.0 miSW (220°)8.1 mphScattered Clouds
9:53 PM73.9 °F71.1 °F91 %29.98 in7.0 miSW (220°)9.2 mphMostly Cloudy
10:21 PM68.0 °F57.2 °F68 %30.00 in10.0 miNorth (10°)10.4 mph20.7 mphOvercast
10:29 PM66.2 °F55.4 °F68 %30.00 in10.0 miNorth (350°)13.8 mphOvercast
10:53 PM63.0 °F57.0 °F81 %30.02 in10.0 miNorth (10°)10.4 mph0.04 inOvercast
11:53 PM64.0 °F57.9 °F80 %30.02 in10.0 miNorth (10°)3.5 mphOvercast
Hourly data recorded from KPGD, located miles away from Punta Gorda, Florida







STORIES FROM OUR PARTNERS